xiamen , China , ASIA

  • Monday
    December 9

      Cloudy

      55 °F

      No wind

       

  • Tuesday
    December 10

    Cloudy  Sunny

    70 °F  55 °F

    Southeast  No wind

    3~4L    

  • Wednesday
    December 11

    Sunny  Sunny

    72 °F  55 °F

    Northeast  Northeast

    3~4L   4~5L 

  • Thursday
    December 12

    Sunny  Sunny

    64 °F  54 °F

    Northeast  No wind

    4~5L    

  • Friday
    December 13

    Sunny  Cloudy

    70 °F  57 °F

    East  No wind

    3~4L    

  • Saturday
    December 14

    Cloudy  Cloudy

    72 °F  61 °F

    Northeast  Northeast

    4~5L   3~4L 

  • Sunday
    December 15

    Sunny  Cloudy

    73 °F  61 °F

    East  No wind

    3~4L    

Date   Weather Temperature Humidity Total_rain Visibility Wind
23:00 Cloudy 57°F 77.8% 0mm 999.9km Northeast  4.5m/s
02:00 Cloudy 57°F 80% 0mm 999.9km Northeast  4.6m/s
05:00 Cloudy 56°F 77.4% 0mm 999.9km Northeast  4.9m/s
08:00 Cloudy 59°F 75.8% 0mm 999.9km Northeast  4.5m/s
11:00 Cloudy 67°F 66.7% 0mm 999.9km Northeast  4.4m/s
14:00 Cloudy 69°F 63.4% 0mm 999.9km Northeast  3.9m/s
17:00 Cloudy 64°F 75.4% 0mm 999.9km Northeast  3.6m/s
20:00 Cloudy 63°F 58.8% 0mm 999.9km Northeast  4.2m/s
23:00 Sunny 61°F 83.4% 0mm 999.9km Northeast  4.6m/s
02:00 Sunny 59°F 82.9% 0mm 999.9km Northeast  4.8m/s
05:00 Sunny 56°F 80% 0mm 999.9km Northeast  5.1m/s
08:00 Sunny 57°F 76.1% 0mm 999.9km Northeast  5.5m/s
11:00 Sunny 68°F 57% 0mm 999.9km Northeast  6.2m/s
14:00 Sunny 71°F 55.7% 0mm 999.9km Northeast  6.6m/s
17:00 Sunny 64°F 71.1% 0mm 999.9km Northeast  6.6m/s
20:00 Sunny 58°F 53.5% 0mm 999.9km Northeast  7.9m/s
23:00 Sunny 58°F 69.2% 0mm 999.9km Northeast  8.1m/s
02:00 Sunny 56°F 74.3% 0mm 999.9km Northeast  8.4m/s
05:00 Sunny 56°F 80.6% 0mm 999.9km Northeast  8.7m/s
08:00 Sunny 56°F 75.4% 0mm 999.9km Northeast  8.7m/s
11:00 Sunny 62°F 66.3% 0mm 999.9km Northeast  9.7m/s
14:00 Sunny 64°F 66.1% 0mm 999.9km Northeast  9.6m/s
17:00 Sunny 60°F 75.6% 0mm 999.9km Northeast  8.2m/s
20:00 Sunny 60°F 57.9% 0mm 999.9km Northeast  8.2m/s
23:00 Sunny 54°F 78.6% 0mm 999.9km Northeast  7.5m/s
02:00 Sunny 54°F 79.9% 0mm 999.9km Northeast  7.0m/s
05:00 Sunny 54°F 81.4% 0mm 999.9km Northeast  6.9m/s
08:00 Sunny 58°F 78.5% 0mm 999.9km Northeast  6.6m/s
11:00 Sunny 66°F 69.9% 0mm 999.9km Northeast  6.0m/s
14:00 Sunny 69°F 68% 0mm 999.9km Northeast  5.8m/s
17:00 Sunny 63°F 76.4% 0mm 999.9km Northeast  5.5m/s
20:00 Sunny 61°F 64.2% 0mm 999.9km Northeast  6.2m/s
23:00 Cloudy 59°F 81.1% 0mm 999.9km Northeast  6.1m/s
02:00 Cloudy 58°F 82.4% 0mm 999.9km Northeast  6.1m/s
05:00 Cloudy 58°F 84% 0mm 999.9km Northeast  6.0m/s
08:00 Cloudy 60°F 82.3% 0mm 999.9km Northeast  6.2m/s
11:00 Cloudy 67°F 69.3% 0mm 999.9km Northeast  2.9m/s
14:00 Cloudy 71°F 68.4% 0mm 999.9km Northeast  6.5m/s
17:00 Cloudy 66°F 75.9% 0mm 999.9km Northeast  3.6m/s
20:00 Cloudy 62°F 63.2% 0mm 999.9km Northeast  7.4m/s
23:00 Cloudy 62°F 86.1% 0mm 999.9km Northeast  5.0m/s
02:00 Cloudy 62°F 85.3% 0mm 999.9km Northeast  6.7m/s
05:00 Cloudy 61°F 84.4% 0mm 999.9km Northeast  2.2m/s
08:00 Cloudy 65°F 83.6% 0mm 999.9km Northeast  6.5m/s
11:00 Sunny 69°F 73.9% 0mm 999.9km Northeast  3.2m/s
14:00 Sunny 73°F 71.9% 0mm 999.9km Northeast  6.0m/s
17:00 Sunny 68°F 68.1% 0mm 999.9km Northeast  3.1m/s
20:00 Sunny 67°F 64.9% 0mm 999.9km Northeast  5.8m/s
23:00 Cloudy 62°F 86.3% 0mm 999.9km Northeast  3.4m/s
02:00 Cloudy 62°F 87.8% 0mm 999.9km Northeast  5.6m/s
05:00 Cloudy 61°F 87.3% 0mm 999.9km Northwest  2.6m/s